This is the latest recevied weather packets stored in our database for station/object WC4PEM-6. If no packets are shown the sender has not sent any weather packets the latest 10 day(s).
| Time | Temp. | Humidity | Pressure | Rain* | Wind** | Luminosity | Snow |
|---|---|---|---|---|---|---|---|
| 1778026805 | 25° C | 60% | 1014.3 hPa | 0 mm | - | - | - |
| 1778026505 | 25° C | 60% | 1014.3 hPa | 0 mm | - | - | - |
| 1778026205 | 25° C | 60% | 1014.3 hPa | 0 mm | - | - | - |
| 1778025910 | 25.56° C | 59% | 1014.1 hPa | 0 mm | - | - | - |
| 1778025905 | 25° C | 60% | 1014.4 hPa | 0 mm | - | - | - |
| 1778025605 | 25.56° C | 59% | 1014.3 hPa | 0 mm | - | - | - |
| 1778025305 | 25.56° C | 59% | 1014.1 hPa | 0 mm | - | - | - |
| 1778025138 | 25.56° C | 59% | 1013.9 hPa | 0 mm | - | - | - |
| 1778025005 | 25.56° C | 59% | 1013.9 hPa | 0 mm | - | - | - |
| 1778024840 | 26.11° C | 59% | 1014 hPa | 0 mm | - | - | - |
| 1778024705 | 26.11° C | 59% | 1014 hPa | 0 mm | - | - | - |
| 1778024653 | 26.11° C | 58% | 1013.9 hPa | 0 mm | - | - | - |
| 1778024405 | 26.11° C | 58% | 1013.9 hPa | 0 mm | - | - | - |
| 1778024294 | 26.67° C | 58% | 1013.8 hPa | 0 mm | - | - | - |
| 1778024105 | 26.67° C | 58% | 1013.8 hPa | 0 mm | - | - | - |
| 1778023981 | 26.67° C | 57% | 1013.8 hPa | 0 mm | - | - | - |
| 1778023805 | 26.67° C | 57% | 1013.8 hPa | 0 mm | - | - | - |
| 1778023693 | 27.22° C | 56% | 1013.8 hPa | 0 mm | - | - | - |
| 1778023505 | 27.22° C | 56% | 1013.8 hPa | 0 mm | - | - | - |
| 1778023205 | 27.78° C | 55% | 1013.8 hPa | 0 mm | - | - | - |
| 1778022905 | 27.78° C | 55% | 1013.8 hPa | 0 mm | - | - | - |
| 1778022605 | 27.78° C | 54% | 1013.8 hPa | 0 mm | - | - | - |
| 1778022495 | 27.78° C | 54% | 1013.8 hPa | 0 mm | - | - | - |
| 1778022305 | 27.78° C | 54% | 1013.8 hPa | 0 mm | - | - | - |
| 1778022030 | 28.33° C | 53% | 1013.9 hPa | 0 mm | - | - | - |
* Rain latest hour (hover to see other rain measurements)
** Current wind speed in m/s (hover to see current wind gust speed)